Location: Crescent
(42.8242°N, 73.7329°W)
Time: 14:39:04
(UTC+00:00)

Explorer 11/Cluster Stage 4 - Pass Details

Date: 22 February 2026
Orbit: 463 x 1176 km, 28.8° (Epoch: 8 March)

Event Time Altitude Azimuth Distance (km) Brightness Sun altitude
Rises 18:19:01 0° 241° (WSW) 2,958 10.2 34.8°
Reaches altitude 10° 18:23:05 10° 208° (SSW) 1,875 10.0 34.5°
Maximum altitude 18:24:29 11° 189° (S) 1,733 9.7 34.4°
Drops below altitude 10° 18:25:50 10° 170° (S) 1,775 9.3 34.3°
Sets 18:29:21 0° 134° (SE) 2,555 9.5 34.0°
